#Datum;Uhrzeit;WR;Pac;DaySum;Status;WR;Pac;DaySum;Status;Pdc1;Udc;Temp;WR;Pac;DaySum;Status;Pdc1;Udc;Temp;WR;Pac;DaySum;Status;Pdc1;Udc;Temp;WR;Pac;DaySum;Status;Pdc1;Pdc2;Udc1;Udc2;Temp;WR;Pac;DaySum;Status;Pdc1;Pdc2;Udc1;Udc2;Temp;WR;Pac;DaySum;Status;Pdc1;Udc;Temp;WR;Pac;DaySum;Status;Pdc1;Udc;Temp;WR;Pac;DaySum;Status;Pdc1;Udc;Temp
13.11.20;23:55:00;1;264;25357;0;2;0;5927;0;0;0;0;3;0;3726;0;0;0;0;4;0;5086;0;0;0;0;5;0;0;0;0;0;0;0;0;6;0;9216;0;0;0;0;0;0;7;0;7224;0;0;0;0;8;0;3404;0;0;0;0;9;0;3764;0;0;0;0
13.11.20;23:50:00;1;326;25335;0;2;0;5927;0;0;0;0;3;0;3726;0;0;0;0;4;0;5086;0;0;0;0;5;0;0;0;0;0;0;0;0;6;0;9216;0;0;0;0;0;0;7;0;7224;0;0;0;0;8;0;3404;0;0;0;0;9;0;3764;0;0;0;0
13.11.20;23:45:00;1;352;25308;0;2;0;5927;0;0;0;0;3;0;3726;0;0;0;0;4;0;5086;0;0;0;0;5;0;0;0;0;0;0;0;0;6;0;9216;0;0;0;0;0;0;7;0;7224;0;0;0;0;8;0;3404;0;0;0;0;9;0;3764;0;0;0;0
13.11.20;23:40:00;1;437;25279;0;2;0;5927;0;0;0;0;3;0;3726;0;0;0;0;4;0;5086;0;0;0;0;5;0;0;0;0;0;0;0;0;6;0;9216;0;0;0;0;0;0;7;0;7224;0;0;0;0;8;0;3404;0;0;0;0;9;0;3764;0;0;0;0
13.11.20;23:35:00;1;382;25243;0;2;0;5927;0;0;0;0;3;0;3726;0;0;0;0;4;0;5086;0;0;0;0;5;0;0;0;0;0;0;0;0;6;0;9216;0;0;0;0;0;0;7;0;7224;0;0;0;0;8;0;3404;0;0;0;0;9;0;3764;0;0;0;0
13.11.20;23:30:00;1;439;25209;0;2;0;5927;0;0;0;0;3;0;3726;0;0;0;0;4;0;5086;0;0;0;0;5;0;0;0;0;0;0;0;0;6;0;9216;0;0;0;0;0;0;7;0;7224;0;0;0;0;8;0;3404;0;0;0;0;9;0;3764;0;0;0;0
13.11.20;23:25:00;1;449;25172;0;2;0;5927;0;0;0;0;3;0;3726;0;0;0;0;4;0;5086;0;0;0;0;5;0;0;0;0;0;0;0;0;6;0;9216;0;0;0;0;0;0;7;0;7224;0;0;0;0;8;0;3404;0;0;0;0;9;0;3764;0;0;0;0
13.11.20;23:20:00;1;474;25135;0;2;0;5927;0;0;0;0;3;0;3726;0;0;0;0;4;0;5086;0;0;0;0;5;0;0;0;0;0;0;0;0;6;0;9216;0;0;0;0;0;0;7;0;7224;0;0;0;0;8;0;3404;0;0;0;0;9;0;3764;0;0;0;0
13.11.20;23:15:00;1;473;25095;0;2;0;5927;0;0;0;0;3;0;3726;0;0;0;0;4;0;5086;0;0;0;0;5;0;0;0;0;0;0;0;0;6;0;9216;0;0;0;0;0;0;7;0;7224;0;0;0;0;8;0;3404;0;0;0;0;9;0;3764;0;0;0;0
13.11.20;23:10:00;1;444;25055;0;2;0;5927;0;0;0;0;3;0;3726;0;0;0;0;4;0;5086;0;0;0;0;5;0;0;0;0;0;0;0;0;6;0;9216;0;0;0;0;0;0;7;0;7224;0;0;0;0;8;0;3404;0;0;0;0;9;0;3764;0;0;0;0
13.11.20;23:05:00;1;380;25019;0;2;0;5927;0;0;0;0;3;0;3726;0;0;0;0;4;0;5086;0;0;0;0;5;0;0;0;0;0;0;0;0;6;0;9216;0;0;0;0;0;0;7;0;7224;0;0;0;0;8;0;3404;0;0;0;0;9;0;3764;0;0;0;0
13.11.20;23:00:00;1;414;24988;0;2;0;5927;0;0;0;0;3;0;3726;0;0;0;0;4;0;5086;0;0;0;0;5;0;0;0;0;0;0;0;0;6;0;9216;0;0;0;0;0;0;7;0;7224;0;0;0;0;8;0;3404;0;0;0;0;9;0;3764;0;0;0;0
13.11.20;22:55:00;1;403;24954;0;2;0;5927;0;0;0;0;3;0;3726;0;0;0;0;4;0;5086;0;0;0;0;5;0;0;0;0;0;0;0;0;6;0;9216;2;0;0;0;0;0;7;0;7224;0;0;0;0;8;0;3404;0;0;0;0;9;0;3764;0;0;0;0
13.11.20;22:50:00;1;412;24920;0;2;0;5927;0;0;0;0;3;0;3726;0;0;0;0;4;0;5086;0;0;0;0;5;0;0;0;0;0;0;0;0;6;0;9216;2;0;0;0;0;0;7;0;7224;0;0;0;0;8;0;3404;0;0;0;0;9;0;3764;0;0;0;0
13.11.20;22:45:00;1;440;24885;0;2;0;5927;0;0;0;0;3;0;3726;0;0;0;0;4;0;5086;0;0;0;0;5;0;0;0;0;0;0;0;0;6;0;9216;2;0;0;0;0;0;7;0;7224;0;0;0;0;8;0;3404;0;0;0;0;9;0;3764;0;0;0;0
13.11.20;22:40:00;1;355;24849;0;2;0;5927;0;0;0;0;3;0;3726;0;0;0;0;4;0;5086;0;0;0;0;5;0;0;0;0;0;0;0;0;6;0;9216;2;0;0;0;0;0;7;0;7224;0;0;0;0;8;0;3404;0;0;0;0;9;0;3764;0;0;0;0
13.11.20;22:35:00;1;356;24819;0;2;0;5927;0;0;0;0;3;0;3726;0;0;0;0;4;0;5086;0;0;0;0;5;0;0;0;0;0;0;0;0;6;0;9216;2;0;0;0;0;0;7;0;7224;0;0;0;0;8;0;3404;0;0;0;0;9;0;3764;0;0;0;0
13.11.20;22:30:00;1;646;24789;0;2;0;5927;0;0;0;0;3;0;3726;0;0;0;0;4;0;5086;0;0;0;0;5;0;0;0;0;0;0;0;0;6;0;9216;2;0;0;0;0;0;7;0;7224;0;0;0;0;8;0;3404;0;0;0;0;9;0;3764;0;0;0;0
13.11.20;22:25:00;1;2196;24732;0;2;0;5927;0;0;0;0;3;0;3726;0;0;0;0;4;0;5086;0;0;0;0;5;0;0;0;0;0;0;0;0;6;0;9216;2;0;0;0;0;0;7;0;7224;0;0;0;0;8;0;3404;0;0;0;0;9;0;3764;0;0;0;0
13.11.20;22:20:00;1;2209;24549;0;2;0;5927;0;0;0;0;3;0;3726;0;0;0;0;4;0;5086;0;0;0;0;5;0;0;0;0;0;0;0;0;6;0;9216;2;0;0;0;0;0;7;0;7224;0;0;0;0;8;0;3404;0;0;0;0;9;0;3764;0;0;0;0
13.11.20;22:15:00;1;2345;24365;0;2;0;5927;0;0;0;0;3;0;3726;0;0;0;0;4;0;5086;0;0;0;0;5;0;0;0;0;0;0;0;0;6;0;9216;2;0;0;0;0;0;7;0;7224;0;0;0;0;8;0;3404;0;0;0;0;9;0;3764;0;0;0;0
13.11.20;22:10:00;1;1628;24180;0;2;0;5927;0;0;0;0;3;0;3726;0;0;0;0;4;0;5086;0;0;0;0;5;0;0;0;0;0;0;0;0;6;0;9216;2;0;0;0;0;0;7;0;7224;0;0;0;0;8;0;3404;0;0;0;0;9;0;3764;0;0;0;0
13.11.20;22:05:00;1;490;24037;0;2;0;5927;0;0;0;0;3;0;3726;0;0;0;0;4;0;5086;0;0;0;0;5;0;0;0;0;0;0;0;0;6;0;9216;2;0;0;0;0;0;7;0;7224;0;0;0;0;8;0;3404;0;0;0;0;9;0;3764;0;0;0;0
13.11.20;22:00:00;1;483;23996;0;2;0;5927;0;0;0;0;3;0;3726;0;0;0;0;4;0;5086;0;0;0;0;5;0;0;0;0;0;0;0;0;6;0;9216;2;0;0;0;0;0;7;0;7224;0;0;0;0;8;0;3404;0;0;0;0;9;0;3764;0;0;0;0
13.11.20;21:55:00;1;403;23952;0;2;0;5927;0;0;0;0;3;0;3726;0;0;0;0;4;0;5086;0;0;0;0;5;0;0;0;0;0;0;0;0;6;0;9216;2;0;0;0;0;0;7;0;7224;0;0;0;0;8;0;3404;0;0;0;0;9;0;3764;0;0;0;0
13.11.20;21:50:00;1;459;23917;0;2;0;5927;0;0;0;0;3;0;3726;0;0;0;0;4;0;5086;0;0;0;0;5;0;0;0;0;0;0;0;0;6;0;9216;2;0;0;0;0;0;7;0;7224;0;0;0;0;8;0;3404;0;0;0;0;9;0;3764;0;0;0;0
13.11.20;21:45:00;1;405;23879;0;2;0;5927;0;0;0;0;3;0;3726;0;0;0;0;4;0;5086;0;0;0;0;5;0;0;0;0;0;0;0;0;6;0;9216;2;0;0;0;0;0;7;0;7224;0;0;0;0;8;0;3404;0;0;0;0;9;0;3764;0;0;0;0
13.11.20;21:40:00;1;430;23844;0;2;0;5927;0;0;0;0;3;0;3726;0;0;0;0;4;0;5086;0;0;0;0;5;0;0;0;0;0;0;0;0;6;0;9216;2;0;0;0;0;0;7;0;7224;0;0;0;0;8;0;3404;0;0;0;0;9;0;3764;0;0;0;0
13.11.20;21:35:00;1;457;23808;0;2;0;5927;0;0;0;0;3;0;3726;0;0;0;0;4;0;5086;0;0;0;0;5;0;0;0;0;0;0;0;0;6;0;9216;2;0;0;0;0;0;7;0;7224;0;0;0;0;8;0;3404;0;0;0;0;9;0;3764;0;0;0;0
13.11.20;21:30:00;1;451;23770;0;2;0;5927;0;0;0;0;3;0;3726;0;0;0;0;4;0;5086;0;0;0;0;5;0;0;0;0;0;0;0;0;6;0;9216;2;0;0;0;0;0;7;0;7224;0;0;0;0;8;0;3404;0;0;0;0;9;0;3764;0;0;0;0
13.11.20;21:25:00;1;1928;23732;0;2;0;5927;0;0;0;0;3;0;3726;0;0;0;0;4;0;5086;0;0;0;0;5;0;0;0;0;0;0;0;0;6;0;9216;2;0;0;0;0;0;7;0;7224;0;0;0;0;8;0;3404;0;0;0;0;9;0;3764;0;0;0;0
13.11.20;21:20:00;1;2249;23579;0;2;0;5927;0;0;0;0;3;0;3726;0;0;0;0;4;0;5086;0;0;0;0;5;0;0;0;0;0;0;0;0;6;0;9216;2;0;0;0;0;0;7;0;7224;0;0;0;0;8;0;3404;0;0;0;0;9;0;3764;0;0;0;0
13.11.20;21:15:00;1;2266;23390;0;2;0;5927;0;0;0;0;3;0;3726;0;0;0;0;4;0;5086;0;0;0;0;5;0;0;0;0;0;0;0;0;6;0;9216;2;0;0;0;0;0;7;0;7224;0;0;0;0;8;0;3404;0;0;0;0;9;0;3764;0;0;0;0
13.11.20;21:10:00;1;1757;23202;0;2;0;5927;0;0;0;0;3;0;3726;0;0;0;0;4;0;5086;0;0;0;0;5;0;0;0;0;0;0;0;0;6;0;9216;2;0;0;0;0;0;7;0;7224;0;0;0;0;8;0;3404;0;0;0;0;9;0;3764;0;0;0;0
13.11.20;21:05:00;1;680;23045;0;2;0;5927;0;0;0;0;3;0;3726;0;0;0;0;4;0;5086;0;0;0;0;5;0;0;0;0;0;0;0;0;6;0;9216;2;0;0;0;0;0;7;0;7224;0;0;0;0;8;0;3404;0;0;0;0;9;0;3764;0;0;0;0
13.11.20;21:00:00;1;715;22989;0;2;0;5927;0;0;0;0;3;0;3726;0;0;0;0;4;0;5086;0;0;0;0;5;0;0;0;0;0;0;0;0;6;0;9216;2;0;0;0;0;0;7;0;7224;0;0;0;0;8;0;3404;0;0;0;0;9;0;3764;0;0;0;0
13.11.20;20:55:00;1;1000;22937;0;2;0;5927;0;0;0;0;3;0;3726;0;0;0;0;4;0;5086;0;0;0;0;5;0;0;0;0;0;0;0;0;6;0;9216;2;0;0;0;0;0;7;0;7224;0;0;0;0;8;0;3404;0;0;0;0;9;0;3764;0;0;0;0
13.11.20;20:50:00;1;923;22863;0;2;0;5927;0;0;0;0;3;0;3726;0;0;0;0;4;0;5086;0;0;0;0;5;0;0;0;0;0;0;0;0;6;0;9216;2;0;0;0;0;0;7;0;7224;0;0;0;0;8;0;3404;0;0;0;0;9;0;3764;0;0;0;0
13.11.20;20:45:00;1;2761;22785;0;2;0;5927;0;0;0;0;3;0;3726;0;0;0;0;4;0;5086;0;0;0;0;5;0;0;0;0;0;0;0;0;6;0;9216;2;0;0;0;0;0;7;0;7224;0;0;0;0;8;0;3404;0;0;0;0;9;0;3764;0;0;0;0
13.11.20;20:40:00;1;2979;22577;0;2;0;5927;0;0;0;0;3;0;3726;0;0;0;0;4;0;5086;0;0;0;0;5;0;0;0;0;0;0;0;0;6;0;9216;2;0;0;0;0;0;7;0;7224;0;0;0;0;8;0;3404;0;0;0;0;9;0;3764;0;0;0;0
13.11.20;20:35:00;1;1167;22329;0;2;0;5927;0;0;0;0;3;0;3726;0;0;0;0;4;0;5086;0;0;0;0;5;0;0;0;0;0;0;0;0;6;0;9216;2;0;0;0;0;0;7;0;7224;0;0;0;0;8;0;3404;0;0;0;0;9;0;3764;0;0;0;0
13.11.20;20:30:00;1;857;22224;0;2;0;5927;0;0;0;0;3;0;3726;0;0;0;0;4;0;5086;0;0;0;0;5;0;0;0;0;0;0;0;0;6;0;9216;2;0;0;0;0;0;7;0;7224;0;0;0;0;8;0;3404;0;0;0;0;9;0;3764;0;0;0;0
13.11.20;20:25:00;1;936;22153;0;2;0;5927;0;0;0;0;3;0;3726;0;0;0;0;4;0;5086;0;0;0;0;5;0;0;0;0;0;0;0;0;6;0;9216;2;0;0;0;0;0;7;0;7224;0;0;0;0;8;0;3404;0;0;0;0;9;0;3764;0;0;0;0
13.11.20;20:20:00;1;927;22073;0;2;0;5927;0;0;0;0;3;0;3726;0;0;0;0;4;0;5086;0;0;0;0;5;0;0;0;0;0;0;0;0;6;0;9216;2;0;0;0;0;0;7;0;7224;0;0;0;0;8;0;3404;0;0;0;0;9;0;3764;0;0;0;0
13.11.20;20:15:00;1;882;21997;0;2;0;5927;0;0;0;0;3;0;3726;0;0;0;0;4;0;5086;0;0;0;0;5;0;0;0;0;0;0;0;0;6;0;9216;2;0;0;0;0;0;7;0;7224;0;0;0;0;8;0;3404;0;0;0;0;9;0;3764;0;0;0;0
13.11.20;20:10:00;1;888;21924;0;2;0;5927;0;0;0;0;3;0;3726;0;0;0;0;4;0;5086;0;0;0;0;5;0;0;0;0;0;0;0;0;6;0;9216;2;0;0;0;0;0;7;0;7224;0;0;0;0;8;0;3404;0;0;0;0;9;0;3764;0;0;0;0
13.11.20;20:05:00;1;901;21848;0;2;0;5927;0;0;0;0;3;0;3726;0;0;0;0;4;0;5086;0;0;0;0;5;0;0;0;0;0;0;0;0;6;0;9216;2;0;0;0;0;0;7;0;7224;0;0;0;0;8;0;3404;0;0;0;0;9;0;3764;0;0;0;0
13.11.20;20:00:00;1;886;21773;0;2;0;5927;0;0;0;0;3;0;3726;0;0;0;0;4;0;5086;0;0;0;0;5;0;0;0;0;0;0;0;0;6;0;9216;2;0;0;0;0;0;7;0;7224;0;0;0;0;8;0;3404;0;0;0;0;9;0;3764;0;0;0;0
13.11.20;19:55:00;1;803;21698;0;2;0;5927;0;0;0;0;3;0;3726;0;0;0;0;4;0;5086;0;0;0;0;5;0;0;0;0;0;0;0;0;6;0;9216;2;0;0;0;0;0;7;0;7224;0;0;0;0;8;0;3404;0;0;0;0;9;0;3764;0;0;0;0
13.11.20;19:50:00;1;880;21633;0;2;0;5927;0;0;0;0;3;0;3726;0;0;0;0;4;0;5086;0;0;0;0;5;0;0;0;0;0;0;0;0;6;0;9216;2;0;0;0;0;0;7;0;7224;0;0;0;0;8;0;3404;0;0;0;0;9;0;3764;0;0;0;0
13.11.20;19:45:00;1;905;21559;0;2;0;5927;0;0;0;0;3;0;3726;0;0;0;0;4;0;5086;0;0;0;0;5;0;0;0;0;0;0;0;0;6;0;9216;2;0;0;0;0;0;7;0;7224;0;0;0;0;8;0;3404;0;0;0;0;9;0;3764;0;0;0;0
13.11.20;19:40:00;1;1003;21484;0;2;0;5927;0;0;0;0;3;0;3726;0;0;0;0;4;0;5086;0;0;0;0;5;0;0;0;0;0;0;0;0;6;0;9216;2;0;0;0;0;0;7;0;7224;0;0;0;0;8;0;3404;0;0;0;0;9;0;3764;0;0;0;0
13.11.20;19:35:00;1;1041;21401;0;2;0;5927;0;0;0;0;3;0;3726;0;0;0;0;4;0;5086;0;0;0;0;5;0;0;0;0;0;0;0;0;6;0;9216;2;0;0;0;0;0;7;0;7224;0;0;0;0;8;0;3404;0;0;0;0;9;0;3764;0;0;0;0
13.11.20;19:30:00;1;1198;21312;0;2;0;5927;0;0;0;0;3;0;3726;0;0;0;0;4;0;5086;0;0;0;0;5;0;0;0;0;0;0;0;0;6;0;9216;2;0;0;0;0;0;7;0;7224;0;0;0;0;8;0;3404;0;0;0;0;9;0;3764;0;0;0;0
13.11.20;19:25:00;1;870;21222;0;2;0;5927;0;0;0;0;3;0;3726;0;0;0;0;4;0;5086;0;0;0;0;5;0;0;0;0;0;0;0;0;6;0;9216;2;0;0;0;0;0;7;0;7224;0;0;0;0;8;0;3404;0;0;0;0;9;0;3764;0;0;0;0
13.11.20;19:20:00;1;762;21150;0;2;0;5927;0;0;0;0;3;0;3726;0;0;0;0;4;0;5086;0;0;0;0;5;0;0;0;0;0;0;0;0;6;0;9216;2;0;0;0;0;0;7;0;7224;0;0;0;0;8;0;3404;0;0;0;0;9;0;3764;0;0;0;0
13.11.20;19:15:00;1;749;21087;0;2;0;5927;0;0;0;0;3;0;3726;0;0;0;0;4;0;5086;0;0;0;0;5;0;0;0;0;0;0;0;0;6;0;9216;2;0;0;0;0;0;7;0;7224;0;0;0;0;8;0;3404;0;0;0;0;9;0;3764;0;0;0;0
13.11.20;19:10:00;1;763;21021;0;2;0;5927;0;0;0;0;3;0;3726;0;0;0;0;4;0;5086;0;0;0;0;5;0;0;0;0;0;0;0;0;6;0;9216;2;0;0;0;0;0;7;0;7224;0;0;0;0;8;0;3404;0;0;0;0;9;0;3764;0;0;0;0
13.11.20;19:05:00;1;872;20956;0;2;0;5927;0;0;0;0;3;0;3726;0;0;0;0;4;0;5086;0;0;0;0;5;0;0;0;0;0;0;0;0;6;0;9216;2;0;0;0;0;0;7;0;7224;0;0;0;0;8;0;3404;0;0;0;0;9;0;3764;0;0;0;0
13.11.20;19:00:00;1;882;20882;0;2;0;5927;0;0;0;0;3;0;3726;0;0;0;0;4;0;5086;0;0;0;0;5;0;0;0;0;0;0;0;0;6;0;9216;2;0;0;0;0;0;7;0;7224;0;0;0;0;8;0;3404;0;0;0;0;9;0;3764;0;0;0;0
13.11.20;18:55:00;1;961;20809;0;2;0;5927;0;0;0;0;3;0;3726;0;0;0;0;4;0;5086;0;0;0;0;5;0;0;0;0;0;0;0;0;6;0;9216;2;0;0;0;0;0;7;0;7224;0;0;0;0;8;0;3404;0;0;0;0;9;0;3764;0;0;0;0
13.11.20;18:50:00;1;871;20730;0;2;0;5927;0;0;0;0;3;0;3726;0;0;0;0;4;0;5086;0;0;0;0;5;0;0;0;0;0;0;0;0;6;0;9216;2;0;0;0;0;0;7;0;7224;0;0;0;0;8;0;3404;0;0;0;0;9;0;3764;0;0;0;0
13.11.20;18:45:00;1;856;20657;0;2;0;5927;0;0;0;0;3;0;3726;0;0;0;0;4;0;5086;0;0;0;0;5;0;0;0;0;0;0;0;0;6;0;9216;2;0;0;0;0;0;7;0;7224;0;0;0;0;8;0;3404;0;0;0;0;9;0;3764;0;0;0;0
13.11.20;18:40:00;1;978;20585;0;2;0;5927;0;0;0;0;3;0;3726;0;0;0;0;4;0;5086;0;0;0;0;5;0;0;0;0;0;0;0;0;6;0;9216;2;0;0;0;0;0;7;0;7224;0;0;0;0;8;0;3404;0;0;0;0;9;0;3764;0;0;0;0
13.11.20;18:35:00;1;955;20503;0;2;0;5927;0;0;0;0;3;0;3726;0;0;0;0;4;0;5086;0;0;0;0;5;0;0;0;0;0;0;0;0;6;0;9216;2;0;0;0;0;0;7;0;7224;0;0;0;0;8;0;3404;0;0;0;0;9;0;3764;0;0;0;0
13.11.20;18:30:00;1;803;20425;0;2;0;5927;0;0;0;0;3;0;3726;0;0;0;0;4;0;5086;0;0;0;0;5;0;0;0;0;0;0;0;0;6;0;9216;2;0;0;0;0;0;7;0;7224;0;0;0;0;8;0;3404;0;0;0;0;9;0;3764;0;0;0;0
13.11.20;18:25:00;1;1205;20355;0;2;0;5927;0;0;0;0;3;0;3726;0;0;0;0;4;0;5086;0;0;0;0;5;0;0;0;0;0;0;0;0;6;0;9216;2;0;0;0;0;0;7;0;7224;0;0;0;0;8;0;3404;0;0;0;0;9;0;3764;0;0;0;0
13.11.20;18:20:00;1;1400;20255;0;2;0;5927;0;0;0;0;3;0;3726;0;0;0;0;4;0;5086;0;0;0;0;5;0;0;0;0;0;0;0;0;6;0;9216;2;0;0;0;0;0;7;0;7224;0;0;0;0;8;0;3404;0;0;0;0;9;0;3764;0;0;0;0
13.11.20;18:15:00;1;1210;20139;0;2;0;5927;0;0;0;0;3;0;3726;0;0;0;0;4;0;5086;0;0;0;0;5;0;0;0;0;0;0;0;0;6;0;9216;2;0;0;0;0;0;7;0;7224;0;0;0;0;8;0;3404;0;0;0;0;9;0;3764;0;0;0;0
13.11.20;18:10:00;1;1596;20038;0;2;0;5927;0;0;0;0;3;0;3726;0;0;0;0;4;0;5086;0;0;0;0;5;0;0;0;0;0;0;0;0;6;0;9216;2;0;0;0;0;0;7;0;7224;0;0;0;0;8;0;3404;0;0;0;0;9;0;3764;0;0;0;0
13.11.20;18:05:00;1;1202;19906;0;2;0;5927;0;0;0;0;3;0;3726;0;0;0;0;4;0;5086;0;0;0;0;5;0;0;0;0;0;0;0;0;6;0;9216;2;0;0;0;0;0;7;0;7224;0;0;0;0;8;0;3404;0;0;0;0;9;0;3764;0;0;0;0
13.11.20;18:00:00;1;1206;19806;0;2;0;5927;0;0;0;0;3;0;3726;0;0;0;0;4;0;5086;0;0;0;0;5;0;0;0;0;0;0;0;0;6;0;9216;2;0;0;0;0;0;7;0;7224;0;0;0;0;8;0;3404;0;0;0;0;9;0;3764;0;0;0;0
13.11.20;17:55:00;1;1121;19705;0;2;0;5927;0;0;0;0;3;0;3726;0;0;0;0;4;0;5086;0;0;0;0;5;0;0;0;0;0;0;0;0;6;0;9216;2;0;0;0;0;0;7;0;7224;0;0;0;0;8;0;3404;0;0;0;0;9;0;3764;0;0;0;0
13.11.20;17:50:00;1;1078;19610;0;2;0;5927;0;0;0;0;3;0;3726;0;0;0;0;4;0;5086;0;0;0;0;5;0;0;0;0;0;0;0;0;6;0;9216;2;0;0;0;0;0;7;0;7224;0;0;0;0;8;0;3404;0;0;0;0;9;0;3764;0;0;0;0
13.11.20;17:45:00;1;1084;19521;0;2;0;5927;0;0;0;0;3;0;3726;0;0;0;0;4;0;5086;0;0;0;0;5;0;0;0;0;0;0;0;0;6;0;9216;2;0;0;0;0;0;7;0;7224;0;0;0;0;8;0;3404;0;0;0;0;9;0;3764;0;0;0;0
13.11.20;17:40:00;1;1160;19430;0;2;0;5927;0;0;0;0;3;0;3726;0;0;0;0;4;0;5086;0;0;0;0;5;0;0;0;0;0;0;0;0;6;0;9216;2;0;0;0;0;0;7;0;7224;0;0;0;0;8;0;3404;0;0;0;0;9;0;3764;0;0;0;0
13.11.20;17:35:00;1;1309;19338;0;2;0;5927;0;0;0;0;3;0;3726;0;0;0;0;4;0;5086;0;0;0;0;5;0;0;0;0;0;0;0;0;6;0;9216;2;0;0;0;0;0;7;0;7224;0;0;0;0;8;0;3404;0;0;0;0;9;0;3764;0;0;0;0
13.11.20;17:30:00;1;1205;19233;0;2;0;5927;0;0;0;0;3;0;3726;0;0;0;0;4;0;5086;0;0;0;0;5;0;0;0;0;0;0;0;0;6;0;9216;2;0;0;0;0;0;7;0;7224;0;0;0;0;8;0;3404;0;0;0;0;9;0;3764;0;0;0;0
13.11.20;17:25:00;1;1526;19130;0;2;0;5927;0;0;0;0;3;0;3726;0;0;0;0;4;0;5086;0;0;0;0;5;0;0;0;0;0;0;0;0;6;0;9216;2;0;0;0;0;0;7;0;7224;0;0;0;0;8;0;3404;0;0;0;0;9;0;3764;0;0;0;0
13.11.20;17:20:00;1;1761;19002;0;2;0;5927;0;0;0;0;3;0;3726;0;0;0;0;4;0;5086;0;0;0;0;5;0;0;0;0;0;0;0;0;6;0;9216;2;0;0;0;0;0;7;0;7224;0;0;0;0;8;0;3404;0;0;0;0;9;0;3764;0;0;0;0
13.11.20;17:15:00;1;1798;18855;0;2;0;5927;0;0;0;0;3;0;3726;0;0;0;0;4;0;5086;0;0;0;0;5;0;0;0;0;0;0;0;0;6;0;9216;2;0;0;0;0;0;7;0;7224;0;0;0;0;8;0;3404;0;0;0;0;9;0;3764;0;0;0;0
13.11.20;17:10:00;1;1770;18705;0;2;0;5927;0;0;0;0;3;0;3726;0;0;0;0;4;0;5086;0;0;0;0;5;0;0;0;0;0;0;0;0;6;0;9216;2;0;0;0;0;0;7;0;7224;0;0;0;0;8;0;3404;0;0;0;0;9;0;3764;0;0;0;0
13.11.20;17:05:00;1;2656;18557;0;2;0;5927;0;0;0;0;3;0;3726;0;0;0;0;4;0;5086;0;0;0;0;5;0;0;0;0;0;0;0;0;6;0;9216;2;0;0;0;0;0;7;0;7224;0;0;0;0;8;0;3404;0;0;0;0;9;0;3764;0;0;0;0
13.11.20;17:00:00;1;1799;18341;0;2;0;5927;0;0;0;0;3;0;3726;0;0;0;0;4;0;5086;0;0;0;0;5;0;0;0;0;0;0;0;0;6;0;9216;2;0;0;0;0;0;7;0;7224;0;0;0;0;8;0;3404;0;0;0;0;9;0;3764;0;0;0;0
13.11.20;16:55:00;1;2154;18185;0;2;0;5927;0;0;0;0;3;0;3726;0;0;0;0;4;0;5086;0;0;0;0;5;0;0;0;0;0;0;0;0;6;0;9216;2;0;0;0;0;0;7;0;7224;0;0;0;0;8;0;3404;0;0;0;0;9;0;3764;0;0;0;0
13.11.20;16:50:00;1;2738;17999;0;2;0;5927;0;0;0;0;3;0;3726;0;0;99;6;4;0;5086;0;0;0;0;5;0;0;0;0;0;0;0;0;6;0;9216;2;0;0;0;0;0;7;0;7224;0;0;0;0;8;0;3404;0;0;0;0;9;0;3764;0;0;0;0
13.11.20;16:45:00;1;2846;17770;0;2;0;5927;2;0;273;14;3;0;3726;6;0;306;16;4;0;5086;0;0;48;11;5;0;0;0;0;0;0;0;0;6;0;9216;2;0;0;0;0;0;7;0;7224;0;0;0;0;8;0;3404;0;0;0;0;9;0;3764;0;0;0;0
13.11.20;16:40:00;1;1921;17533;0;2;0;5927;6;0;321;14;3;0;3726;6;0;390;17;4;0;5086;1;0;108;16;5;0;0;0;0;0;0;0;0;6;0;9216;2;3;1;89;179;14;7;0;7224;0;0;72;5;8;0;3404;0;0;72;5;9;0;3764;0;0;115;6
13.11.20;16:35:00;1;899;17383;0;2;0;5927;6;0;355;14;3;0;3726;6;1;424;17;4;0;5086;1;0;152;17;5;0;0;0;0;0;0;0;0;6;0;9216;23;5;3;180;501;26;7;0;7224;6;0;304;19;8;0;3404;6;0;304;18;9;0;3764;6;0;322;14
13.11.20;16:30:00;1;931;17308;0;2;0;5927;6;0;380;15;3;0;3726;6;0;481;17;4;0;5086;1;0;186;17;5;0;0;0;0;0;0;0;0;6;0;9216;23;3;5;372;548;26;7;0;7224;6;0;363;19;8;0;3404;6;0;382;18;9;0;3764;6;0;410;15
13.11.20;16:25:00;1;1003;17231;0;2;3;5927;6;8;396;15;3;1;3726;4;3;495;17;4;1;5086;1;1;202;18;5;0;0;0;0;0;0;0;0;6;39;9216;1;22;40;489;469;27;7;2;7224;6;4;435;20;8;0;3404;6;0;441;18;9;0;3764;6;1;473;15
13.11.20;16:20:00;1;879;17151;0;2;20;5927;6;35;387;15;3;2;3726;3;7;515;17;4;4;5086;3;4;200;18;5;0;0;0;0;0;0;0;0;6;72;9212;4;31;46;472;450;28;7;3;7224;6;14;447;20;8;1;3404;4;3;449;18;9;1;3764;3;8;496;15
13.11.20;16:15:00;1;868;17077;0;2;53;5925;4;85;356;16;3;5;3726;6;9;525;18;4;17;5086;3;18;199;18;5;0;0;0;0;0;0;0;0;6;93;9206;4;39;56;472;450;28;7;25;7224;6;44;404;20;8;2;3404;3;4;482;19;9;3;3764;6;6;526;15
13.11.20;16:10:00;1;944;17003;0;2;64;5921;4;98;368;16;3;4;3726;6;9;533;18;4;32;5084;3;33;198;18;5;0;0;0;0;0;0;0;0;6;111;9198;4;39;56;472;450;28;7;52;7222;4;77;360;21;8;0;3404;6;3;491;19;9;3;3764;6;7;543;16
13.11.20;16:05:00;1;952;16926;0;2;80;5915;4;114;370;17;3;7;3725;6;11;536;18;4;41;5082;3;42;198;18;5;0;0;0;0;0;0;0;0;6;132;9189;4;54;67;472;450;28;7;61;7217;4;96;391;21;8;1;3404;6;7;494;19;9;10;3763;6;19;516;16
13.11.20;16:00:00;1;943;16847;0;2;132;5909;4;168;376;17;3;65;3725;6;97;500;19;4;94;5078;3;98;208;18;5;0;0;0;0;0;0;0;0;6;187;9177;4;92;106;472;450;28;7;123;7212;4;157;425;21;8;35;3404;6;58;446;19;9;49;3763;6;67;472;16
13.11.20;15:55:00;1;833;16768;0;2;151;5898;4;187;370;17;3;85;3720;4;124;491;19;4;113;5070;5;118;219;19;5;0;0;0;0;0;0;0;0;6;204;9161;4;93;109;472;450;28;7;143;7202;4;192;450;21;8;50;3401;4;92;450;19;9;78;3759;4;109;477;17
13.11.20;15:50:00;1;737;16698;0;2;179;5885;4;216;370;17;3;103;3713;4;144;483;19;4;127;5061;5;132;219;19;5;0;0;0;0;0;0;0;0;6;234;9145;4;111;131;474;468;28;7;178;7190;4;210;437;21;8;62;3397;4;100;448;19;9;86;3752;4;117;491;17
13.11.20;15:45:00;1;719;16637;0;2;282;5870;4;326;390;18;3;173;3704;4;214;480;19;4;219;5051;5;228;228;19;5;0;0;0;0;0;0;0;0;6;388;9124;4;181;205;556;548;28;7;309;7175;4;351;458;21;8;126;3391;4;167;452;20;9;156;3745;4;190;494;17
13.11.20;15:40:00;1;654;16577;0;2;390;5846;4;434;395;18;3;222;3690;4;266;496;20;4;264;5032;5;275;235;19;5;0;0;0;0;0;0;0;0;6;490;9091;4;237;257;578;552;28;7;508;7149;4;547;459;21;8;221;3381;4;263;447;20;9;184;3732;4;219;512;17
13.11.20;15:35:00;1;1154;16516;0;2;517;5814;4;569;394;18;3;288;3671;4;332;459;20;4;312;5010;5;324;236;19;5;0;0;0;0;0;0;0;0;6;587;9049;4;289;309;578;556;28;7;553;7107;4;599;471;21;8;234;3363;4;275;465;20;9;196;3717;4;232;535;18
13.11.20;15:30:00;1;687;16422;0;2;1050;5767;4;1117;390;18;3;498;3645;4;551;512;20;4;485;4983;5;505;249;19;5;0;0;0;0;0;0;0;0;6;1138;8992;4;566;573;601;575;28;7;1485;7057;4;1555;466;21;8;591;3342;4;645;508;20;9;268;3700;4;312;567;18
13.11.20;15:25:00;1;586;16354;0;2;882;5678;4;943;389;18;3;438;3602;4;493;533;20;4;478;4943;5;498;247;19;5;0;0;0;0;0;0;0;0;6;1024;8899;4;516;523;592;568;28;7;1189;6932;4;1256;445;21;8;565;3292;4;619;500;20;9;290;3678;4;333;566;18
13.11.20;15:20:00;1;637;16306;0;2;613;5609;4;666;396;18;3;356;3567;4;404;507;20;4;424;4904;5;442;243;19;5;0;0;0;0;0;0;0;0;6;819;8813;4;413;421;583;563;28;7;849;6836;4;906;480;21;8;385;3246;4;440;475;20;9;285;3654;4;327;542;18
13.11.20;15:15:00;1;743;16253;0;2;492;5558;4;539;404;18;3;301;3537;4;349;500;20;4;383;4868;5;399;238;19;5;0;0;0;0;0;0;0;0;6;682;8747;4;337;358;582;559;28;7;586;6765;4;632;476;21;8;266;3213;4;307;473;20;9;269;3630;4;311;527;18
13.11.20;15:10:00;1;821;16186;0;2;396;5517;4;443;391;18;3;248;3512;4;291;497;20;4;325;4837;5;338;233;20;5;0;0;0;0;0;0;0;0;6;594;8692;4;292;311;573;556;28;7;461;6716;4;509;454;21;8;207;3191;4;246;474;20;9;239;3608;4;279;511;18
13.11.20;15:05:00;1;828;16117;0;2;361;5484;4;405;394;18;3;223;3491;4;266;508;20;4;295;4809;5;307;234;20;5;0;0;0;0;0;0;0;0;6;551;8643;4;269;292;567;554;28;7;409;6677;4;454;458;21;8;178;3173;4;219;468;20;9;210;3588;4;248;516;18
13.11.20;15:00:00;1;1294;16041;0;2;362;5454;4;408;393;18;3;222;3473;4;270;496;20;4;291;4785;5;303;226;20;5;0;0;0;0;0;0;0;0;6;556;8597;4;276;296;562;555;28;7;402;6643;4;444;462;22;8;174;3159;4;212;462;20;9;208;3570;4;244;505;18
13.11.20;14:55:00;1;1502;15935;0;2;380;5424;4;429;393;19;3;237;3454;4;283;500;20;4;314;4761;5;327;233;20;5;0;0;0;0;0;0;0;0;6;590;8550;4;288;308;571;551;28;7;430;6610;4;475;466;22;8;190;3144;4;231;447;20;9;221;3553;4;258;506;19
13.11.20;14:50:00;1;1293;15816;0;2;380;5392;4;428;390;19;3;237;3434;4;283;500;20;4;315;4734;5;328;233;20;5;0;0;0;0;0;0;0;0;6;594;8501;4;283;303;564;550;28;7;437;6574;4;476;457;22;8;190;3128;4;235;453;20;9;224;3535;4;260;500;19
13.11.20;14:45:00;1;665;15703;0;2;435;5360;4;485;393;19;3;270;3415;4;313;501;21;4;365;4708;5;380;234;20;5;0;0;0;0;0;0;0;0;6;687;8451;4;345;362;577;557;28;7;494;6538;4;542;455;22;8;221;3112;4;261;460;20;9;256;3516;4;297;514;19
13.11.20;14:40:00;1;846;15647;0;2;528;5324;4;582;393;20;3;329;3392;4;378;504;21;4;450;4678;5;469;236;21;5;0;0;0;0;0;0;0;0;6;813;8393;4;394;411;583;558;28;7;604;6496;4;661;475;22;8;280;3094;4;321;474;20;9;318;3494;4;361;517;19
13.11.20;14:35:00;1;754;15576;0;2;602;5280;4;656;401;20;3;378;3365;4;429;505;21;4;516;4640;5;537;237;21;5;0;0;0;0;0;0;0;0;6;914;8324;4;466;473;581;560;28;7;698;6446;4;747;468;22;8;325;3071;4;367;462;20;9;368;3468;4;412;518;20
13.11.20;14:30:00;1;843;15514;0;2;614;5230;4;670;402;20;3;387;3333;4;437;501;21;4;529;4597;5;551;238;21;5;0;0;0;0;0;0;0;0;6;933;8247;4;469;480;590;564;28;7;706;6388;4;772;475;23;8;336;3043;4;371;476;20;9;380;3437;4;426;517;20
13.11.20;14:25:00;1;1161;15446;0;2;632;5178;4;688;398;20;3;397;3301;4;451;511;21;4;545;4553;5;568;235;21;5;0;0;0;0;0;0;0;0;6;969;8169;4;496;507;581;562;28;7;740;6329;4;792;468;23;8;341;3015;4;383;484;20;9;389;3406;4;438;515;20
13.11.20;14:20:00;1;1108;15356;0;2;688;5125;4;748;405;21;3;436;3267;4;489;496;22;4;598;4507;5;623;237;21;5;0;0;0;0;0;0;0;0;6;1049;8087;4;522;532;582;558;28;7;827;6267;4;879;474;23;8;385;2987;4;431;479;20;9;435;3374;4;484;528;20
13.11.20;14:15:00;1;789;15257;0;2;686;5068;4;744;397;21;3;436;3231;4;489;496;22;4;591;4457;5;615;237;22;5;0;0;0;0;0;0;0;0;6;1042;8000;4;525;527;586;561;29;7;823;6198;4;883;481;23;8;391;2954;4;433;473;20;9;437;3337;4;489;522;20
13.11.20;14:10:00;1;734;15186;0;2;726;5011;4;787;399;22;3;458;3195;4;513;500;22;4;629;4408;5;655;235;22;5;0;0;0;0;0;0;0;0;6;1107;7913;4;580;582;583;557;29;7;856;6129;4;924;479;23;8;415;2922;4;448;458;20;9;458;3300;4;508;518;21
13.11.20;14:05:00;1;918;15125;0;2;833;4950;4;896;401;22;3;523;3157;4;583;514;22;4;715;4356;5;745;240;22;5;0;0;0;0;0;0;0;0;6;1244;7820;4;637;639;580;560;29;7;991;6058;4;1064;476;23;8;476;2887;4;521;461;20;9;529;3262;4;582;524;21
13.11.20;14:00:00;1;681;15056;0;2;992;4880;4;1063;408;23;3;634;3113;4;696;513;22;4;855;4296;5;891;238;22;5;0;0;0;0;0;0;0;0;6;1450;7714;4;721;728;586;565;29;7;1218;5975;4;1299;483;24;8;589;2847;4;638;473;20;9;649;3218;4;709;526;21
13.11.20;13:55:00;1;2117;14994;0;2;1059;4798;4;1135;407;23;3;678;3060;4;740;508;23;4;917;4225;5;955;239;22;5;0;0;0;0;0;0;0;0;6;1545;7592;4;791;788;585;568;29;7;1330;5874;4;1405;482;24;8;636;2798;4;691;477;20;9;706;3164;4;771;530;22
13.11.20;13:50:00;1;2444;14817;0;2;1209;4709;4;1290;408;23;3;770;3003;4;836;508;23;4;1039;4148;5;1082;237;23;5;0;0;0;0;0;0;0;0;6;1746;7462;4;878;878;586;566;29;7;1539;5763;4;1630;479;24;8;737;2745;4;791;473;20;9;806;3105;4;872;526;22
13.11.20;13:45:00;1;2472;14611;0;2;1655;4609;4;1756;413;24;3;1033;2939;4;1110;516;23;4;1301;4061;5;1355;248;23;5;0;0;0;0;0;0;0;0;6;2240;7312;4;1155;1126;592;573;29;7;2314;5634;4;2439;486;24;8;1109;2683;4;1174;446;20;9;1201;3038;4;1289;543;22
13.11.20;13:40:00;1;2678;14407;0;2;1345;4472;4;1426;407;24;3;993;2853;4;1067;508;23;4;1272;3953;5;1325;240;23;5;0;0;0;0;0;0;0;0;6;2030;7111;4;1048;1028;589;558;29;7;1742;5426;4;1829;488;24;8;849;2583;4;906;477;20;9;966;2933;4;1042;535;22